Helicity
142 172 155 144 147 134 173 159 87 167 183 134 115 158 207 214 206 209 208 256 159 99
134 135 104 107 112 119 145 134 138 169 142 106 105 176 171 170 173 176 166 121 109 104
130 121 114 110 115 111 112 130 133 144 147 150 166 155 163 140 135 116 122 120 89 92
81 74 110 67 78 90 97 114 90 106 107 112 115 122 142 104 97 106 115 104 90 78
88 99 100 109 129 109 97 124 115 101 98 101 96 97 112 104 108 95 87 80 94 91
82 111 121 143 150 133 120 101 80 113 108 98 98 120 113 106 103 91 76 87 89 88
68 74 101 123 122 116 106 115 113 117 106 108 111 108 108 105 102 98 96 93 93 102
67 67 78 86 85 100 99 111 133 130 106 105 106 110 112 110 105 100 99 101 104 110
63 67 70 84 95 112 117 122 122 108 112 117 113 98 97 107 108 104 109 119 134 130
91 94 102 107 108 107 116 133 122 125 127 117 111 105 96 98 122 129 131 130 126 128
71 83 97 103 105 130 136 125 135 130 130 134 125 117 112 113 135 136 130 125 128 140
73 87 97 107 121 137 144 143 142 141 135 134 140 138 129 149 161 157 150 154 156 139
87 91 100 111 124 136 142 149 152 162 151 140 169 197 209 218 212 148 154 160 149 127
122 134 124 136 142 148 158 163 174 186 197 207 211 210 151 117 157 162 188 178 183 177
Wind_Speed
31 35 37 32 38 38 38 34 21 18 18 19 16 20 30 31 34 37 41 49 39 39
25 29 30 29 25 26 28 27 21 23 22 22 20 19 21 33 38 41 40 36 33 38
28 29 31 32 35 33 29 29 26 23 20 22 26 29 32 31 36 34 32 34 38 36
24 26 28 27 27 28 24 19 19 25 29 32 33 30 33 33 30 33 35 34 34 37
29 28 29 25 24 23 24 26 28 27 29 32 31 31 31 33 33 32 33 35 38 41
32 33 31 30 32 31 33 33 29 34 37 31 30 30 32 33 34 35 36 38 40 43
27 27 29 32 32 33 34 37 42 37 34 32 34 34 34 35 36 36 38 39 42 45
32 33 33 33 32 34 35 36 39 37 36 32 33 32 31 31 33 36 39 42 46 49
30 30 30 31 32 30 29 27 26 27 29 29 29 29 29 31 35 38 43 49 50 51
32 30 27 26 26 26 27 28 29 29 29 30 32 33 33 35 39 43 46 49 51 53
34 34 32 31 31 30 28 29 30 31 33 34 36 37 38 39 41 44 47 49 50 51
35 33 32 31 31 31 33 33 34 34 34 35 37 37 38 39 41 47 51 52 52 52
38 37 37 36 36 37 38 38 36 36 36 37 40 41 44 45 51 54 54 54 53 53
40 37 36 35 36 35 35 34 36 37 38 40 43 48 53 52 52 55 54 55 57 54
Wind_Direction
258 266 268 275 281 281 276 275 284 286 290 296 307 311 303 307 309 314 311 313 313 314
260 263 271 276 278 278 281 284 287 294 290 292 301 302 305 302 306 308 310 312 313 311
266 270 276 280 279 282 283 285 288 293 293 296 300 300 304 310 311 309 313 309 309 312
269 276 281 281 284 284 288 284 288 292 294 295 296 301 305 307 310 310 309 310 310 311
281 280 279 276 283 284 286 290 293 296 296 297 294 299 301 304 307 308 307 308 310 312
283 280 281 279 281 282 287 295 288 290 292 300 299 299 301 302 303 305 306 308 310 313
292 291 287 287 285 282 284 286 283 290 295 297 297 297 298 300 303 306 308 311 313 314
298 297 296 295 292 290 288 288 289 291 293 297 298 299 301 304 306 308 310 312 312 313
307 306 304 301 297 296 296 296 295 295 297 299 301 303 303 305 307 309 310 310 313 314
314 313 312 310 307 302 299 298 298 299 300 301 303 305 306 306 308 310 312 312 313 314
314 311 309 307 305 305 305 303 303 302 302 303 305 306 308 309 310 311 312 314 316 316
315 314 313 310 310 308 307 306 306 307 306 306 309 312 312 312 311 312 313 315 316 316
314 312 310 309 308 308 307 306 307 307 309 309 310 313 313 313 313 311 312 314 315 315
315 314 312 312 311 310 311 311 311 310 312 312 312 311 310 310 310 310 313 314 315 318